logo tempoitalia

Diretta Meteo Perpignan, Francialunedì 31 agosto ore 07:00

Mappa
Sereno 23 °C Sereno 24 Ore: T.min 22 T.max 32
Ponente Ovest/Nord-Ovest Km/h 16.7 Punto di rugiada: 15 °C Umidità: 60% Visibilità: 10 Km
Il sole sorge alle: 07:12 Il sole tramonta alle: 20:25
31 Agosto 2026 07:00 tempo osservato: Sereno Sereno 23 60 1018 vento: Nord O/NO 16.7
31 Agosto 2026 06:30 tempo osservato: Sereno Sereno 23 60 1018 vento: Nord O/NO 11.1
31 Agosto 2026 06:00 tempo osservato: Sereno Sereno 23 60 1018 vento: Nord O/NO 16.7
31 Agosto 2026 05:30 tempo osservato: Sereno Sereno 23 60 1017 vento: Nord O/NO 18.5
31 Agosto 2026 05:00 tempo osservato: Sereno Sereno 24 57 1017 vento: Nord O/NO 18.5
31 Agosto 2026 04:30 tempo osservato: Sereno Sereno 24 60 1017 vento: Nord O/NO 14.8
31 Agosto 2026 04:00 tempo osservato: Sereno Sereno 24 60 1017 vento: Nord NO 20.3
31 Agosto 2026 03:30 tempo osservato: Sereno Sereno 24 60 1017 vento: Nord O/NO 25.9
31 Agosto 2026 03:00 tempo osservato: Sereno Sereno 25 61 1017 vento: Nord O/NO 20.3
31 Agosto 2026 02:30 tempo osservato: Sereno Sereno 25 61 1017 vento: Nord O/NO 20.3
31 Agosto 2026 02:00 tempo osservato: Sereno Sereno 26 57 1017 vento: Nord O/NO 22.2
31 Agosto 2026 01:30 tempo osservato: Sereno Sereno 27 50 1017 vento: Nord O/NO 24
31 Agosto 2026 01:00 tempo osservato: Sereno Sereno 27 47 1016 vento: Nord O/NO 16.7
31 Agosto 2026 00:30 tempo osservato: Sereno Sereno 27 47 1016 vento: Nord O/NO 13
31 Agosto 2026 00:00 tempo osservato: Poco Nuvoloso Poco Nuvoloso 28 48 1016 vento: Nord O/NO 14.8
30 Agosto 2026 23:30 tempo osservato: Coperto Coperto 27 57 1016 vento: Nord NO 11.1
30 Agosto 2026 23:00 tempo osservato: Nuvoloso Nuvoloso 25 69 1016 vento: Nord N 3.7
30 Agosto 2026 22:30 tempo osservato: Sereno Sereno 25 69 1015 vento: Nord N 3.7
30 Agosto 2026 22:00 tempo osservato: Sereno Sereno 25 73 1015 vento: Nord N 1.8
30 Agosto 2026 21:30 tempo osservato: Sereno Sereno 26 69 1015 vento: Nord N 5.5
30 Agosto 2026 21:00 tempo osservato: Sereno Sereno 26 69 1014 vento: Nord N 7.4
30 Agosto 2026 20:30 tempo osservato: Sereno Sereno 27 65 1014 vento: Nord N 9.3
30 Agosto 2026 20:00 tempo osservato: Sereno Sereno 27 65 1013 vento: Nord N 13
30 Agosto 2026 19:30 tempo osservato: Sereno Sereno 28 65 1013 vento: Nord N 14.8
30 Agosto 2026 19:00 tempo osservato: Sereno Sereno 29 58 1013 vento: Nord N 16.7
30 Agosto 2026 18:30 tempo osservato: Sereno Sereno 30 55 1013 vento: Nord N/NE 18.5
30 Agosto 2026 18:00 tempo osservato: Sereno Sereno 30 51 1013 vento: Nord NE 18.5
30 Agosto 2026 17:30 tempo osservato: Sereno Sereno 30 51 1014 vento: Nord NE 22.2
30 Agosto 2026 17:00 tempo osservato: Sereno Sereno 30 51 1014 vento: Nord E/NE 20.3
30 Agosto 2026 16:30 tempo osservato: Sereno Sereno 30 48 1014 vento: Nord E/NE 22.2
30 Agosto 2026 16:00 tempo osservato: Sereno Sereno 30 45 1015 vento: Nord E 24
30 Agosto 2026 15:30 tempo osservato: Sereno Sereno 31 43 1015 vento: Nord E 18.5
30 Agosto 2026 15:00 tempo osservato: Sereno Sereno 31 37 1015 vento: Nord E 18.5
30 Agosto 2026 14:30 tempo osservato: Sereno Sereno 31 33 1015 vento: Nord E 20.3
30 Agosto 2026 14:00 tempo osservato: Sereno Sereno 32 33 1015 vento: Nord E 18.5
30 Agosto 2026 13:30 tempo osservato: Sereno Sereno 31 35 1016 vento: Nord E 16.7
30 Agosto 2026 13:00 tempo osservato: Sereno Sereno 31 37 1016 vento: Nord E 16.7
30 Agosto 2026 12:30 tempo osservato: Sereno Sereno 31 35 1016 vento: Nord E 16.7
30 Agosto 2026 12:00 tempo osservato: Sereno Sereno 31 33 1016 vento: Nord E 11.1
30 Agosto 2026 11:30 tempo osservato: Sereno Sereno 31 33 1017 vento: Nord E 11.1
30 Agosto 2026 11:00 tempo osservato: Sereno Sereno 30 35 1017 vento: Nord E 7.4
30 Agosto 2026 10:30 tempo osservato: Sereno Sereno 30 33 1017 vento: Nord N 3.7
30 Agosto 2026 10:00 tempo osservato: Sereno Sereno 28 39 1017 vento: Nord N 5.5
30 Agosto 2026 09:30 tempo osservato: Sereno Sereno 27 42 1017 vento: Nord N 5.5
30 Agosto 2026 09:00 tempo osservato: Sereno Sereno 26 44 1017 vento: Nord O 7.4
30 Agosto 2026 08:30 tempo osservato: Sereno Sereno 24 50 1017 vento: Nord N 5.5
30 Agosto 2026 08:00 tempo osservato: Sereno Sereno 22 53 1017 vento: Nord O/SO 7.4